Weather History for Elbow Lake, MN

Change the Weather History Date:

Tuesday, December 4, 2012

  Actual Average (KFFM) Record (KFFM)
Temperature  
Mean Temperature 24 °F -  
Max Temperature 30 °F 26 °F 43 °F (1948)
Min Temperature 17 °F 10 °F -18 °F (1991)
Degree Days  
Heating Degree Days 42    
Moisture  
Dew Point 13 °F    
Average Humidity 74    
Maximum Humidity 86    
Minimum Humidity 63    
Precipitation  
Precipitation 0.00 in - - ()
Sea Level Pressure  
Sea Level Pressure 30.19 in    
Wind  
Wind Speed 11 mph (NNW)    
Max Wind Speed 18 mph    
Max Gust Speed 22 mph    
Visibility 10 miles    
Events      
Averages and records for this station are not official NWS values.
T = Trace of Precipitation, MM = Missing Value Source: NWS Daily Summary

Daily Weather History Graph

Daily Weather History Graph

Search for Another Location

Airport:

Trip Planner

Search our weather history database for the weather conditions in past years. The results will help you decide how hot, cold, wet, or windy it might be!

Date:

Astronomy

Dec. 04, 2012 Rise Set
Actual Time 7:49 AM CST 4:39 PM CST
Civil Twilight 7:15 AM CST 5:13 PM CST
Nautical Twilight 6:37 AM CST 5:50 PM CST
Astronomical Twilight 6:01 AM CST 6:27 PM CST
Moon 10:40 PM CST (12/4) 11:32 AM CST (12/4)
Length of Visible Light 9h 58m
Length of Day
8h 49m
Waning Gibbous, 69% of the Moon is Illuminated
Dec 4
Waning Gibbous
Dec 6
Last Quarter
Dec 13
New
Dec 19
First Quarter
Dec 28
Full

Hourly Weather History & Observations

Time (CST) Temp. Windchill Dew Point Humidity Pressure Visibility Wind Dir Wind Speed Gust Speed Precip Events Conditions
12:15 AM 30.2 °F 19.3 °F 23.0 °F 75% 29.95 in 10.0 mi NW 15.0 mph - N/A   Clear
12:35 AM 28.4 °F 18.5 °F 23.0 °F 80% 29.96 in 10.0 mi NW 11.5 mph - N/A   Clear
12:55 AM 28.4 °F 21.2 °F 21.2 °F 74% 29.96 in 10.0 mi NW 6.9 mph - N/A   Clear
1:15 AM 26.6 °F 18.2 °F 21.2 °F 80% 29.97 in 10.0 mi NW 8.1 mph - N/A   Clear
1:35 AM 26.6 °F 17.5 °F 19.4 °F 74% 29.98 in 10.0 mi NW 9.2 mph - N/A   Clear
1:55 AM 24.8 °F 14.6 °F 19.4 °F 80% 29.98 in 10.0 mi WNW 10.4 mph - N/A   Clear
2:15 AM 24.8 °F 14.0 °F 17.6 °F 74% 29.97 in 10.0 mi WNW 11.5 mph - N/A   Clear
2:35 AM 23.0 °F 12.4 °F 17.6 °F 80% 29.99 in 10.0 mi West 10.4 mph - N/A   Clear
2:55 AM 23.0 °F 13.1 °F 17.6 °F 80% 30.01 in 10.0 mi WNW 9.2 mph - N/A   Clear
3:15 AM 23.0 °F 10.6 °F 17.6 °F 80% 30.01 in 10.0 mi WNW 13.8 mph - N/A   Clear
3:35 AM 23.0 °F 11.7 °F 17.6 °F 80% 30.02 in 10.0 mi WNW 11.5 mph - N/A   Clear
3:55 AM 21.2 °F 10.1 °F 15.8 °F 80% 30.03 in 10.0 mi WNW 10.4 mph - N/A   Clear
4:15 AM 21.2 °F 9.5 °F 15.8 °F 80% 30.03 in 10.0 mi WNW 11.5 mph - N/A   Clear
4:35 AM 21.2 °F 10.1 °F 15.8 °F 80% 30.04 in 10.0 mi WNW 10.4 mph - N/A   Clear
4:55 AM 21.2 °F 8.9 °F 14.0 °F 74% 30.04 in 10.0 mi NW 12.7 mph 16.1 mph N/A   Clear
5:35 AM 21.2 °F 8.9 °F 14.0 °F 74% 30.05 in 10.0 mi NW 12.7 mph - N/A   Clear
6:15 AM 19.4 °F 6.0 °F 14.0 °F 80% 30.07 in 10.0 mi NW 13.8 mph 20.7 mph N/A   Clear
6:35 AM 19.4 °F 6.6 °F 12.2 °F 74% 30.08 in 10.0 mi NW 12.7 mph - N/A   Clear
6:55 AM 19.4 °F 6.0 °F 12.2 °F 74% 30.10 in 10.0 mi NW 13.8 mph - N/A   Clear
7:15 AM 17.6 °F 5.0 °F 14.0 °F 86% 30.10 in 10.0 mi NW 11.5 mph - N/A   Clear
7:35 AM 17.6 °F 3.7 °F 12.2 °F 79% 30.12 in 10.0 mi NW 13.8 mph - N/A   Clear
7:55 AM 17.6 °F 3.7 °F 12.2 °F 79% 30.13 in 10.0 mi NW 13.8 mph - N/A   Clear
8:15 AM 17.6 °F 4.3 °F 12.2 °F 79% 30.14 in 10.0 mi NW 12.7 mph - N/A   Clear
8:35 AM 17.6 °F 4.3 °F 12.2 °F 79% 30.16 in 10.0 mi NW 12.7 mph - N/A   Clear
8:55 AM 17.6 °F 3.2 °F 12.2 °F 79% 30.16 in 10.0 mi NW 15.0 mph 20.7 mph N/A   Clear
9:15 AM 17.6 °F 2.7 °F 10.4 °F 73% 30.18 in 10.0 mi NW 16.1 mph - N/A   Clear
9:35 AM 17.6 °F 2.7 °F 10.4 °F 73% 30.19 in 10.0 mi NW 16.1 mph 21.9 mph N/A   Clear
9:55 AM 17.6 °F 1.7 °F 10.4 °F 73% 30.19 in 10.0 mi NW 18.4 mph 21.9 mph N/A   Clear
10:15 AM 17.6 °F 2.7 °F 10.4 °F 73% 30.20 in 10.0 mi NW 16.1 mph 20.7 mph N/A   Clear
10:35 AM 19.4 °F 5.5 °F 10.4 °F 68% 30.22 in 10.0 mi NW 15.0 mph 21.9 mph N/A   Clear
10:55 AM 19.4 °F 5.5 °F 10.4 °F 68% 30.23 in 10.0 mi NW 15.0 mph - N/A   Clear
11:15 AM 19.4 °F 5.0 °F 10.4 °F 68% 30.23 in 10.0 mi NW 16.1 mph 19.6 mph N/A   Clear
11:35 AM 19.4 °F 6.6 °F 10.4 °F 68% 30.25 in 10.0 mi NNW 12.7 mph 21.9 mph N/A   Clear
11:55 AM 21.2 °F 8.3 °F 12.2 °F 68% 30.25 in 10.0 mi NNW 13.8 mph - N/A   Clear
12:15 PM 21.2 °F 8.3 °F 12.2 °F 68% 30.25 in 10.0 mi NW 13.8 mph - N/A   Clear
12:35 PM 21.2 °F 8.3 °F 12.2 °F 68% 30.25 in 10.0 mi NW 13.8 mph - N/A   Clear
1:15 PM 23.0 °F 9.6 °F 12.2 °F 63% 30.25 in 10.0 mi NNW 16.1 mph 19.6 mph N/A   Clear
1:35 PM 23.0 °F 11.1 °F 12.2 °F 63% 30.25 in 10.0 mi NNW 12.7 mph 17.3 mph N/A   Clear
1:55 PM 23.0 °F 11.1 °F 12.2 °F 63% 30.25 in 10.0 mi NNW 12.7 mph 19.6 mph N/A   Clear
2:15 PM 23.0 °F 12.4 °F 12.2 °F 63% 30.26 in 10.0 mi NW 10.4 mph 18.4 mph N/A   Clear
2:35 PM 23.0 °F 12.4 °F 12.2 °F 63% 30.26 in 10.0 mi NNW 10.4 mph - N/A   Clear
2:55 PM 23.0 °F 13.1 °F 12.2 °F 63% 30.26 in 10.0 mi NNW 9.2 mph - N/A   Clear
3:15 PM 23.0 °F 12.4 °F 12.2 °F 63% 30.27 in 10.0 mi NW 10.4 mph - N/A   Clear
3:35 PM 23.0 °F 13.1 °F 12.2 °F 63% 30.28 in 10.0 mi NW 9.2 mph - N/A   Clear
3:55 PM 23.0 °F 11.1 °F 12.2 °F 63% 30.28 in 10.0 mi NNW 12.7 mph - N/A   Clear
4:15 PM 23.0 °F 13.1 °F 12.2 °F 63% 30.28 in 10.0 mi NNW 9.2 mph - N/A   Clear
4:35 PM 23.0 °F 12.4 °F 12.2 °F 63% 30.29 in 10.0 mi NNW 10.4 mph - N/A   Clear
4:55 PM 23.0 °F 13.9 °F 12.2 °F 63% 30.29 in 10.0 mi North 8.1 mph - N/A   Clear
5:15 PM 21.2 °F 12.6 °F 12.2 °F 68% 30.30 in 10.0 mi NNW 6.9 mph - N/A   Clear
5:35 PM 21.2 °F 13.6 °F 12.2 °F 68% 30.30 in 10.0 mi NNW 5.8 mph - N/A   Clear
5:55 PM 21.2 °F 14.9 °F 12.2 °F 68% 30.30 in 10.0 mi NNW 4.6 mph - N/A   Clear
6:35 PM 19.4 °F 12.8 °F 12.2 °F 74% 30.31 in 10.0 mi NNW 4.6 mph - N/A   Clear
6:55 PM 17.6 °F 10.7 °F 12.2 °F 79% 30.30 in 10.0 mi North 4.6 mph - N/A   Clear
7:15 PM 19.4 °F 12.8 °F 12.2 °F 74% 30.30 in 10.0 mi North 4.6 mph - N/A   Clear
7:35 PM 17.6 °F - 12.2 °F 79% 30.31 in 10.0 mi Calm Calm - N/A   Clear
7:55 PM 17.6 °F 12.3 °F 12.2 °F 79% 30.31 in 10.0 mi North 3.5 mph - N/A   Clear
8:15 PM 17.6 °F - 12.2 °F 79% 30.32 in 10.0 mi Calm Calm - N/A   Clear
8:35 PM 17.6 °F 12.3 °F 12.2 °F 79% 30.32 in 10.0 mi NNE 3.5 mph - N/A   Clear
8:55 PM 17.6 °F - 12.2 °F 79% 30.33 in 10.0 mi Calm Calm - N/A   Clear
9:15 PM 17.6 °F - 12.2 °F 79% 30.33 in 10.0 mi Calm Calm - N/A   Clear
9:35 PM 17.6 °F - 12.2 °F 79% 30.34 in 10.0 mi Calm Calm - N/A   Clear
9:55 PM 17.6 °F - 12.2 °F 79% 30.35 in 10.0 mi Calm Calm - N/A   Clear
10:15 PM 17.6 °F - 12.2 °F 79% 30.36 in 4.0 mi Calm Calm - N/A   Clear
10:35 PM 17.6 °F 8.2 °F 12.2 °F 79% 30.35 in 4.0 mi ENE 6.9 mph - N/A   Haze
10:55 PM 17.6 °F 12.3 °F 12.2 °F 79% 30.35 in 7.0 mi East 3.5 mph - N/A   Clear
11:15 PM 17.6 °F 10.7 °F 12.2 °F 79% 30.34 in 10.0 mi East 4.6 mph - N/A   Clear
11:35 PM 17.6 °F 9.3 °F 12.2 °F 79% 30.35 in 10.0 mi East 5.8 mph - N/A   Clear
11:55 PM 17.6 °F 8.2 °F 12.2 °F 79% 30.34 in 10.0 mi East 6.9 mph - N/A   Clear